Project,Study,Ord_Occ,Event_Num,Cast_ID,Date_Time_UTC,Date_Time_PST,Lat_Dec,Lon_Dec,Sta_ID,Line,Sta,Depth,Pressure,PrQ,Temp1,Temp1Q,Temp2,Temp2Q,TempAve,Salt1,Salt1Q,Salt1_Corr,Salt2,Salt2Q,Salt2_Corr,SaltAve_Corr,Ox1,Ox1Q,Ox1_CruiseCorr,Ox1_StaCorr,Ox2,Ox2Q,Ox2_CruiseCorr,Ox2_StaCorr,OxAve_StaCorr,Ox1uM,Ox1uM_CruiseCorr,Ox1uM_StaCorr,Ox2uM,Ox2uM_CruiseCorr,Ox2uM_StaCorr,OxAveuM_StaCorr,FluorV,FluorQ,EstChl_CruiseCorr,EstChl_StaCorr,ISUSV,ISUSQ,EstNO3_CruiseCorr,EstNO3_StaCorr,SigThetaTS1,SigThetaTS1Q,SigThetaTS2,SigThetaTS2Q,BAT,XMiss,TransQ,pH,pHQ,SPAR,SPARQ,PAR,PARQ,PoT1,PoT2,DynHt,SVA,OxSat1,OxSat2,BTL_Depth,BTL_Temp,SaltB,OxB,OxBuM,Chl-a,Phaeo,NO3,NO2,NH4,PO4,SIL
CalCOFI,2007SR,018,19,2007_018u,16-Jul-2020 17:46:15,16-Jul-2020 09:46:15,30.41752,-123.99732,090.0 120.0,090.0,120.0,516.000,520.206,,5.5303,,5.5382,,5.5343,34.2136,,34.2138,34.2141,,34.2157,34.2148,0.4468,,0.4492,0.4860,1.9497,,0.7133,0.7792,0.6326,19.427,19.7917,33.8915,84.785,,41.1846,37.5381,0.0323,,,,1.8346,,41.2757,40.107,26.9945,,26.9940,,0.6241,85.5547,,7.529,,1.7389E+03,,1.0000E-12,,5.4869,5.4948,1.0235,,6.362,27.771,,,,,,,,,,,,
CalCOFI,2007SR,018,19,2007_018u,16-Jul-2020 17:46:17,16-Jul-2020 09:46:17,30.41752,-123.99732,090.0 120.0,090.0,120.0,515.000,519.197,,5.5434,,5.5450,,5.5442,34.2113,,34.2115,34.2127,,34.2143,34.2129,0.4472,,0.4496,0.4864,1.9616,,0.7417,0.8109,0.6487,19.449,19.8147,33.9106,85.302,,42.3645,38.1376,0.0315,,,,1.8337,,41.2504,40.082,26.9911,,26.9920,,0.6243,85.5501,,7.527,,1.8069E+03,,1.0000E-12,,5.5000,5.5016,1.0235,,6.371,27.945,515,5.543,,0.494,21.54,,,40.86,0.00,0.24,3.12,83.45
CalCOFI,2007SR,018,19,2007_018u,16-Jul-2020 17:46:18,16-Jul-2020 09:46:18,30.41752,-123.99732,090.0 120.0,090.0,120.0,514.000,518.188,,5.5485,,5.5490,,5.5488,34.2103,,34.2105,34.2118,,34.2134,34.2120,0.4480,,0.4504,0.4873,1.9538,,0.7231,0.7901,0.6387,19.482,19.8492,33.9393,84.964,,41.5931,37.7662,0.0315,,,,1.8336,,41.2476,40.079,26.9897,,26.9908,,0.6243,85.5505,,7.528,,1.8278E+03,,1.0000E-12,,5.5052,5.5057,1.0235,,6.382,27.837,,,,,,,,,,,,
CalCOFI,2007SR,018,19,2007_018u,16-Jul-2020 17:46:26,16-Jul-2020 09:46:26,30.41752,-123.99733,090.0 120.0,090.0,120.0,513.000,517.178,,5.5489,,5.5487,,5.5488,34.2104,,34.2106,34.2120,,34.2136,34.2121,0.4472,,0.4496,0.4864,1.9411,,0.6928,0.7563,0.6214,19.447,19.8126,33.9089,84.412,,40.3333,37.1211,0.0320,,,,1.8345,,41.2729,40.104,26.9897,,26.9910,,0.6242,85.5523,,7.528,,1.7672E+03,,1.0000E-12,,5.5057,5.5055,1.0248,,6.371,27.656,,,,,,,,,,,,
CalCOFI,2007SR,018,19,2007_018u,16-Jul-2020 17:46:42,16-Jul-2020 09:46:42,30.41752,-123.99732,090.0 120.0,090.0,120.0,512.000,516.169,,5.5516,,5.5518,,5.5517,34.2100,,34.2102,34.2116,,34.2132,34.2117,0.4558,,0.4586,0.4954,1.9234,,0.6505,0.7091,0.6023,19.822,20.2041,34.2345,83.639,,38.5692,36.4019,0.0314,,,,1.8354,,41.2982,40.129,26.9891,,26.9904,,0.6240,85.5575,,7.529,,1.6333E+03,,1.0000E-12,,5.5085,5.5086,1.0274,,6.494,27.404,,,,,,,,,,,,
CalCOFI,2007SR,018,19,2007_018u,16-Jul-2020 17:46:43,16-Jul-2020 09:46:43,30.41752,-123.99732,090.0 120.0,090.0,120.0,511.000,515.159,,5.5540,,5.5542,,5.5541,34.2098,,34.2100,34.2114,,34.2130,34.2115,0.4510,,0.4535,0.4904,1.9235,,0.6508,0.7094,0.5999,19.613,19.9859,34.0530,83.647,,38.5875,36.3203,0.0311,,,,1.8352,,41.2926,40.124,26.9886,,26.9899,,0.6243,85.5504,,7.529,,1.6306E+03,,1.0000E-12,,5.5109,5.5112,1.0274,,6.427,27.408,,,,,,,,,,,,
CalCOFI,2007SR,018,19,2007_018u,16-Jul-2020 17:46:44,16-Jul-2020 09:46:44,30.41752,-123.99732,090.0 120.0,090.0,120.0,510.000,514.150,,5.5566,,5.5565,,5.5566,34.2095,,34.2097,34.2111,,34.2127,34.2112,0.4584,,0.4613,0.4982,1.9154,,0.6314,0.6878,0.5930,19.936,20.3231,34.3336,83.295,,37.7841,36.0589,0.0317,,,,1.8352,,41.2926,40.124,26.9880,,26.9894,,0.6243,85.5505,,7.529,,1.6266E+03,,1.0000E-12,,5.5137,5.5135,1.0274,,6.533,27.294,,,,,,,,,,,,
CalCOFI,2007SR,018,19,2007_018u,16-Jul-2020 17:46:45,16-Jul-2020 09:46:45,30.41752,-123.99732,090.0 120.0,090.0,120.0,509.000,513.141,,5.5594,,5.5588,,5.5591,34.2075,,34.2077,34.2096,,34.2112,34.2095,0.4603,,0.4633,0.5001,1.9135,,0.6269,0.6827,0.5914,20.018,20.4087,34.4048,83.210,,37.5902,35.9975,0.0312,,,,1.8353,,41.2954,40.126,26.9861,,26.9879,,0.6243,85.5505,,7.529,,1.6231E+03,,1.0000E-12,,5.5165,5.5159,1.0274,,6.560,27.268,,,,,,,,,,,,
CalCOFI,2007SR,018,19,2007_018u,16-Jul-2020 17:46:46,16-Jul-2020 09:46:46,30.41752,-123.99732,090.0 120.0,090.0,120.0,508.000,512.131,,5.5623,,5.5620,,5.5622,34.2052,,34.2054,34.2072,,34.2088,34.2071,0.4740,,0.4776,0.5145,1.9172,,0.6357,0.6926,0.6036,20.613,21.0298,34.9215,83.373,,37.9622,36.4419,0.0316,,,,1.8362,,41.3206,40.151,26.9840,,26.9855,,0.6243,85.5505,,7.529,,1.6198E+03,,1.0000E-12,,5.5195,5.5192,1.0274,,6.755,27.323,,,,,,,,,,,,
CalCOFI,2007SR,018,19,2007_018u,16-Jul-2020 17:46:48,16-Jul-2020 09:46:48,30.41752,-123.99732,090.0 120.0,090.0,120.0,507.000,511.122,,5.5669,,5.5650,,5.5660,34.2036,,34.2038,34.2059,,34.2075,34.2057,0.4865,,0.4906,0.5276,1.9125,,0.6245,0.6801,0.6039,21.158,21.5987,35.3948,83.169,,37.4966,36.4457,0.0322,,,,1.8376,,41.3599,40.190,26.9821,,26.9842,,0.6246,85.5450,,7.529,,1.6186E+03,,1.0000E-12,,5.5242,5.5222,1.0274,,6.934,27.258,,,,,,,,,,,,
CalCOFI,2007SR,018,19,2007_018u,16-Jul-2020 17:46:49,16-Jul-2020 09:46:49,30.41752,-123.99732,090.0 120.0,090.0,120.0,506.000,510.113,,5.5815,,5.5778,,5.5797,34.1988,,34.1990,34.2017,,34.2033,34.2012,0.4932,,0.4976,0.5346,1.9050,,0.6066,0.6601,0.5974,21.447,21.9004,35.6458,82.843,,36.7526,36.1992,0.0318,,,,1.8386,,41.3880,40.218,26.9765,,26.9793,,0.6243,85.5505,,7.529,,1.6186E+03,,1.0000E-12,,5.5388,5.5351,1.0274,,7.031,27.158,,,,,,,,,,,,
CalCOFI,2007SR,018,19,2007_018u,16-Jul-2020 17:46:50,16-Jul-2020 09:46:50,30.41752,-123.99732,090.0 120.0,090.0,120.0,505.000,509.103,,5.5900,,5.5887,,5.5894,34.1961,,34.1963,34.1982,,34.1998,34.1981,0.4982,,0.5029,0.5399,1.9093,,0.6169,0.6716,0.6058,21.664,22.1269,35.8342,83.028,,37.1748,36.5045,0.0322,,,,1.8397,,41.4189,40.249,26.9734,,26.9752,,0.6243,85.5505,,7.529,,1.6178E+03,,1.0000E-12,,5.5473,5.5460,1.0274,,7.104,27.225,,,,,,,,,,,,
CalCOFI,2007SR,018,19,2007_018u,16-Jul-2020 17:46:51,16-Jul-2020 09:46:51,30.41752,-123.99732,090.0 120.0,090.0,120.0,504.000,508.094,,5.5931,,5.5932,,5.5932,34.1951,,34.1953,34.1967,,34.1983,34.1968,0.5036,,0.5085,0.5455,1.9090,,0.6162,0.6708,0.6082,21.901,22.3744,36.0400,83.017,,37.1497,36.5949,0.0309,,,,1.8405,,41.4414,40.271,26.9722,,26.9734,,0.6243,85.5505,,7.529,,1.6157E+03,,1.0000E-12,,5.5505,5.5506,1.0274,,7.182,27.224,,,,,,,,,,,,
CalCOFI,2007SR,018,19,2007_018u,16-Jul-2020 17:46:52,16-Jul-2020 09:46:52,30.41752,-123.99732,090.0 120.0,090.0,120.0,503.000,507.084,,5.6053,,5.6065,,5.6059,34.1936,,34.1938,34.1953,,34.1969,34.1954,0.5092,,0.5144,0.5514,1.9031,,0.6021,0.6550,0.6032,22.145,22.6291,36.2519,82.760,,36.5632,36.4076,0.0318,,,,1.8409,,41.4526,40.282,26.9695,,26.9707,,0.6242,85.5527,,7.529,,1.6127E+03,,1.0000E-12,,5.5628,5.5640,1.0274,,7.264,27.148,,,,,,,,,,,,
CalCOFI,2007SR,018,19,2007_018u,16-Jul-2020 17:46:52,16-Jul-2020 09:46:52,30.41752,-123.99732,090.0 120.0,090.0,120.0,502.000,506.075,,5.6192,,5.6191,,5.6192,34.1927,,34.1929,34.1946,,34.1962,34.1946,0.5097,,0.5149,0.5519,1.8960,,0.5851,0.6361,0.5940,22.164,22.6489,36.2684,82.451,,35.8580,36.0632,0.0321,,,,1.8408,,41.4498,40.279,26.9671,,26.9687,,0.6243,85.5505,,7.529,,1.6095E+03,,1.0000E-12,,5.5767,5.5766,1.0274,,7.272,27.054,,,,,,,,,,,,
CalCOFI,2007SR,018,19,2007_018u,16-Jul-2020 17:46:53,16-Jul-2020 09:46:53,30.41752,-123.99732,090.0 120.0,090.0,120.0,501.000,505.066,,5.6452,,5.6447,,5.6450,34.1926,,34.1928,34.1945,,34.1961,34.1945,0.5168,,0.5223,0.5593,1.9003,,0.5954,0.6476,0.6035,22.476,22.9746,36.5394,82.637,,36.2825,36.4110,0.0316,,,,1.8402,,41.4330,40.263,26.9639,,26.9655,,0.6243,85.5505,,7.529,,1.6063E+03,,1.0000E-12,,5.6027,5.6022,1.0274,,7.379,27.132,,,,,,,,,,,,
CalCOFI,2007SR,018,19,2007_018u,16-Jul-2020 17:46:54,16-Jul-2020 09:46:54,30.41752,-123.99732,090.0 120.0,090.0,120.0,500.000,504.056,,5.6495,,5.6503,,5.6499,34.1908,,34.1910,34.1926,,34.1942,34.1926,0.5224,,0.5282,0.5652,1.9007,,0.5963,0.6486,0.6069,22.718,23.2272,36.7496,82.656,,36.3258,36.5377,0.0323,,,,1.8387,,41.3908,40.221,26.9619,,26.9632,,0.6243,85.5505,,7.529,,1.6041E+03,,1.0000E-12,,5.6071,5.6079,1.0274,,7.459,27.141,,,,,,,,,,,,
CalCOFI,2007SR,018,19,2007_018u,16-Jul-2020 17:46:55,16-Jul-2020 09:46:55,30.41752,-123.99732,090.0 120.0,090.0,120.0,499.000,503.047,,5.6596,,5.6606,,5.6601,34.1891,,34.1893,34.1903,,34.1919,34.1906,0.5236,,0.5294,0.5665,1.8975,,0.5887,0.6401,0.6033,22.768,23.2794,36.7930,82.518,,36.0109,36.4020,0.0317,,,,1.8367,,41.3347,40.165,26.9593,,26.9602,,0.6243,85.5505,,7.529,,1.6020E+03,,1.0000E-12,,5.6172,5.6182,1.0274,,7.477,27.102,,,,,,,,,,,,
CalCOFI,2007SR,018,19,2007_018u,16-Jul-2020 17:46:56,16-Jul-2020 09:46:56,30.41752,-123.99732,090.0 120.0,090.0,120.0,498.000,502.038,,5.6699,,5.6706,,5.6703,34.1873,,34.1875,34.1888,,34.1904,34.1890,0.5316,,0.5378,0.5748,1.8972,,0.5880,0.6393,0.6071,23.117,23.6437,37.0961,82.503,,35.9767,36.5364,0.0320,,,,1.8343,,41.2673,40.099,26.9566,,26.9577,,0.6240,85.5577,,7.529,,1.6015E+03,,1.0000E-12,,5.6275,5.6283,1.0274,,7.594,27.103,,,,,,,,,,,,
CalCOFI,2007SR,018,19,2007_018u,16-Jul-2020 17:46:58,16-Jul-2020 09:46:58,30.41752,-123.99732,090.0 120.0,090.0,120.0,497.000,501.028,,5.6708,,5.6708,,5.6708,34.1864,,34.1866,34.1877,,34.1893,34.1880,0.5393,,0.5458,0.5829,1.8907,,0.5725,0.6220,0.6025,23.453,23.9945,37.3879,82.222,,35.3354,36.3617,0.0320,,,,1.8316,,41.1915,40.024,26.9559,,26.9569,,0.6245,85.5454,,7.529,,1.6032E+03,,1.0000E-12,,5.6285,5.6285,1.0274,,7.704,27.010,,,,,,,,,,,,
CalCOFI,2007SR,018,19,2007_018u,16-Jul-2020 17:46:59,16-Jul-2020 09:46:59,30.41752,-123.99732,090.0 120.0,090.0,120.0,496.000,500.019,,5.6776,,5.6810,,5.6793,34.1849,,34.1851,34.1860,,34.1876,34.1864,0.5420,,0.5486,0.5857,1.8926,,0.5770,0.6271,0.6064,23.571,24.1177,37.4903,82.305,,35.5248,36.5076,0.0321,,,,1.8286,,41.1072,39.940,26.9539,,26.9542,,0.6243,85.5506,,7.529,,1.6034E+03,,1.0000E-12,,5.6354,5.6388,1.0274,,7.744,27.044,,,,,,,,,,,,
CalCOFI,2007SR,018,19,2007_018u,16-Jul-2020 17:47:00,16-Jul-2020 09:47:00,30.41752,-123.99732,090.0 120.0,090.0,120.0,495.000,499.010,,5.6948,,5.6942,,5.6945,34.1833,,34.1835,34.1851,,34.1867,34.1851,0.5442,,0.5509,0.5881,1.8905,,0.5720,0.6215,0.6048,23.668,24.2189,37.5746,82.214,,35.3171,36.4459,0.0309,,,,1.8260,,41.0342,39.868,26.9504,,26.9520,,0.6242,85.5517,,7.529,,1.6020E+03,,1.0000E-12,,5.6526,5.6520,1.0274,,7.779,27.022,,,,,,,,,,,,
CalCOFI,2007SR,018,19,2007_018u,16-Jul-2020 17:47:00,16-Jul-2020 09:47:00,30.41752,-123.99732,090.0 120.0,090.0,120.0,494.000,498.000,,5.6977,,5.6978,,5.6978,34.1829,,34.1831,34.1844,,34.1860,34.1846,0.5434,,0.5501,0.5872,1.8919,,0.5753,0.6252,0.6062,23.632,24.1813,37.5433,82.273,,35.4518,36.4976,0.0310,,,,1.8237,,40.9696,39.804,26.9498,,26.9510,,0.6241,85.5552,,7.530,,1.5982E+03,,1.0000E-12,,5.6556,5.6557,1.0274,,7.768,27.043,,,,,,,,,,,,
CalCOFI,2007SR,018,19,2007_018u,16-Jul-2020 17:47:01,16-Jul-2020 09:47:01,30.41752,-123.99732,090.0 120.0,090.0,120.0,493.000,496.991,,5.7007,,5.7008,,5.7008,34.1827,,34.1829,34.1844,,34.1860,34.1845,0.5439,,0.5506,0.5877,1.8914,,0.5741,0.6239,0.6058,23.652,24.2022,37.5607,82.255,,35.4107,36.4857,0.0315,,,,1.8215,,40.9079,39.743,26.9492,,26.9505,,0.6243,85.5507,,7.530,,1.5945E+03,,1.0000E-12,,5.6587,5.6588,1.0274,,7.775,27.039,,,,,,,,,,,,
CalCOFI,2007SR,018,19,2007_018u,16-Jul-2020 17:47:03,16-Jul-2020 09:47:03,30.41752,-123.99732,090.0 120.0,090.0,120.0,492.000,495.982,,5.7011,,5.7037,,5.7024,34.1827,,34.1829,34.1843,,34.1859,34.1844,0.5469,,0.5538,0.5909,1.8911,,0.5734,0.6231,0.6070,23.783,24.3390,37.6744,82.238,,35.3719,36.5232,0.0317,,,,1.8181,,40.8124,39.649,26.9491,,26.9502,,0.6242,85.5535,,7.530,,1.5939E+03,,1.0000E-12,,5.6592,5.6618,1.0274,,7.818,27.036,,,,,,,,,,,,
CalCOFI,2007SR,018,19,2007_018u,16-Jul-2020 17:47:04,16-Jul-2020 09:47:04,30.41752,-123.99732,090.0 120.0,090.0,120.0,491.000,494.973,,5.7079,,5.7122,,5.7101,34.1827,,34.1829,34.1840,,34.1856,34.1843,0.5510,,0.5580,0.5952,1.8904,,0.5718,0.6212,0.6082,23.963,24.5269,37.8308,82.209,,35.3057,36.5683,0.0317,,,,1.8155,,40.7394,39.576,26.9483,,26.9488,,0.6243,85.5504,,7.531,,1.5984E+03,,1.0000E-12,,5.6661,5.6703,1.0274,,7.878,27.031,,,,,,,,,,,,
CalCOFI,2007SR,018,19,2007_018u,16-Jul-2020 17:47:05,16-Jul-2020 09:47:05,30.41752,-123.99732,090.0 120.0,090.0,120.0,490.000,493.963,,5.7164,,5.7170,,5.7167,34.1825,,34.1827,34.1840,,34.1856,34.1842,0.5531,,0.5602,0.5974,1.8899,,0.5706,0.6199,0.6087,24.051,24.6187,37.9072,82.188,,35.2578,36.5825,0.0323,,,,1.8141,,40.7001,39.537,26.9471,,26.9482,,0.6241,85.5555,,7.533,,1.5996E+03,,1.0000E-12,,5.6746,5.6752,1.0274,,7.909,27.027,,,,,,,,,,,,
CalCOFI,2007SR,018,19,2007_018u,16-Jul-2020 17:47:06,16-Jul-2020 09:47:06,30.41752,-123.99732,090.0 120.0,090.0,120.0,489.000,492.954,,5.7240,,5.7241,,5.7241,34.1813,,34.1815,34.1829,,34.1845,34.1830,0.5536,,0.5608,0.5979,1.8893,,0.5691,0.6183,0.6081,24.074,24.6427,37.9272,82.162,,35.1984,36.5628,0.0312,,,,1.8133,,40.6776,39.515,26.9452,,26.9465,,0.6243,85.5504,,7.532,,1.5996E+03,,1.0000E-12,,5.6823,5.6823,1.0274,,7.918,27.023,,,,,,,,,,,,
CalCOFI,2007SR,018,19,2007_018u,16-Jul-2020 17:47:07,16-Jul-2020 09:47:07,30.41752,-123.99732,090.0 120.0,090.0,120.0,488.000,491.945,,5.7250,,5.7252,,5.7251,34.1811,,34.1813,34.1825,,34.1841,34.1827,0.5564,,0.5637,0.6008,1.8890,,0.5684,0.6175,0.6092,24.196,24.7701,38.0331,82.149,,35.1688,36.6010,0.0313,,,,1.8126,,40.6579,39.496,26.9450,,26.9460,,0.6239,85.5584,,7.533,,1.5989E+03,,1.0000E-12,,5.6833,5.6836,1.0274,,7.958,27.020,,,,,,,,,,,,
CalCOFI,2007SR,018,19,2007_018u,16-Jul-2020 17:47:07,16-Jul-2020 09:47:07,30.41752,-123.99732,090.0 120.0,090.0,120.0,487.000,490.935,,5.7250,,5.7253,,5.7252,34.1812,,34.1814,34.1825,,34.1841,34.1828,0.5525,,0.5596,0.5967,1.8887,,0.5677,0.6167,0.6067,24.027,24.5937,37.8863,82.138,,35.1437,36.5150,0.0313,,,,1.8121,,40.6439,39.482,26.9450,,26.9460,,0.6243,85.5506,,7.534,,1.5960E+03,,1.0000E-12,,5.6835,5.6837,1.0274,,7.903,27.016,,,,,,,,,,,,
CalCOFI,2007SR,018,19,2007_018u,16-Jul-2020 17:47:08,16-Jul-2020 09:47:08,30.41752,-123.99732,090.0 120.0,090.0,120.0,486.000,489.926,,5.7251,,5.7253,,5.7252,34.1811,,34.1813,34.1826,,34.1842,34.1828,0.5516,,0.5587,0.5958,1.8860,,0.5612,0.6095,0.6027,23.988,24.5530,37.8525,82.021,,34.8766,36.3646,0.0305,,,,1.8116,,40.6299,39.468,26.9449,,26.9460,,0.6243,85.5505,,7.534,,1.5922E+03,,1.0000E-12,,5.6836,5.6838,1.0274,,7.890,26.977,,,,,,,,,,,,
CalCOFI,2007SR,018,19,2007_018u,16-Jul-2020 17:47:10,16-Jul-2020 09:47:10,30.41752,-123.99732,090.0 120.0,090.0,120.0,485.000,488.917,,5.7255,,5.7257,,5.7256,34.1808,,34.1810,34.1823,,34.1839,34.1825,0.5576,,0.5649,0.6021,1.8889,,0.5682,0.6172,0.6097,24.251,24.8275,38.0809,82.147,,35.1642,36.6226,0.0315,,,,1.8100,,40.5849,39.424,26.9446,,26.9458,,0.6240,85.5569,,7.533,,1.5914E+03,,1.0000E-12,,5.6841,5.6843,1.0274,,7.976,27.019,,,,,,,,,,,,
CalCOFI,2007SR,018,19,2007_018u,16-Jul-2020 17:47:11,16-Jul-2020 09:47:11,30.41752,-123.99732,090.0 120.0,090.0,120.0,484.000,487.908,,5.7265,,5.7263,,5.7264,34.1803,,34.1805,34.1821,,34.1837,34.1821,0.5620,,0.5695,0.6067,1.8879,,0.5658,0.6145,0.6106,24.439,25.0238,38.2441,82.102,,35.0615,36.6528,0.0314,,,,1.8086,,40.5456,39.385,26.9441,,26.9455,,0.6243,85.5501,,7.534,,1.5999E+03,,1.0000E-12,,5.6852,5.6850,1.0274,,8.038,27.005,,,,,,,,,,,,
CalCOFI,2007SR,018,19,2007_018u,16-Jul-2020 17:47:12,16-Jul-2020 09:47:12,30.41752,-123.99732,090.0 120.0,090.0,120.0,483.000,486.898,,5.7265,,5.7267,,5.7266,34.1802,,34.1804,34.1815,,34.1831,34.1818,0.5701,,0.5780,0.6152,1.8877,,0.5653,0.6140,0.6146,24.793,25.3933,38.5516,82.093,,35.0410,36.7963,0.0314,,,,1.8077,,40.5204,39.360,26.9440,,26.9450,,0.6241,85.5540,,7.534,,1.6047E+03,,1.0000E-12,,5.6852,5.6855,1.0274,,8.155,27.002,,,,,,,,,,,,
CalCOFI,2007SR,018,19,2007_018u,16-Jul-2020 17:47:13,16-Jul-2020 09:47:13,30.41752,-123.99732,090.0 120.0,090.0,120.0,482.000,485.889,,5.7203,,5.7204,,5.7204,34.1773,,34.1775,34.1782,,34.1798,34.1787,0.5704,,0.5783,0.6155,1.8878,,0.5655,0.6143,0.6149,24.807,25.4079,38.5637,82.098,,35.0524,36.8081,0.0320,,,,1.8070,,40.5007,39.340,26.9424,,26.9432,,0.6238,85.5602,,7.534,,1.6064E+03,,1.0000E-12,,5.6792,5.6793,1.0274,,8.158,26.999,,,,,,,,,,,,
CalCOFI,2007SR,018,19,2007_018u,16-Jul-2020 17:47:14,16-Jul-2020 09:47:14,30.41752,-123.99732,090.0 120.0,090.0,120.0,481.000,484.880,,5.7137,,5.7140,,5.7139,34.1757,,34.1759,34.1769,,34.1785,34.1772,0.5729,,0.5809,0.6181,1.8879,,0.5658,0.6145,0.6163,24.916,25.5217,38.6584,82.102,,35.0615,36.8600,0.0313,,,,1.8065,,40.4867,39.326,26.9420,,26.9429,,0.6240,85.5574,,7.534,,1.6059E+03,,1.0000E-12,,5.6727,5.6730,1.0274,,8.192,26.996,,,,,,,,,,,,
CalCOFI,2007SR,018,19,2007_018u,16-Jul-2020 17:47:14,16-Jul-2020 09:47:14,30.41752,-123.99732,090.0 120.0,090.0,120.0,480.000,483.871,,5.7129,,5.7129,,5.7129,34.1749,,34.1751,34.1761,,34.1777,34.1764,0.5746,,0.5827,0.6199,1.8877,,0.5653,0.6140,0.6170,24.987,25.5958,38.7201,82.094,,35.0432,36.8817,0.0313,,,,1.8059,,40.4698,39.310,26.9414,,26.9424,,0.6236,85.5665,,7.534,,1.6039E+03,,1.0000E-12,,5.6720,5.6720,1.0274,,8.216,26.993,,,,,,,,,,,,
CalCOFI,2007SR,018,19,2007_018u,16-Jul-2020 17:47:15,16-Jul-2020 09:47:15,30.41752,-123.99732,090.0 120.0,090.0,120.0,479.000,482.861,,5.7123,,5.7125,,5.7124,34.1744,,34.1746,34.1757,,34.1773,34.1760,0.5751,,0.5832,0.6204,1.8875,,0.5648,0.6135,0.6170,25.011,25.6209,38.7409,82.085,,35.0227,36.8818,0.0313,,,,1.8051,,40.4474,39.287,26.9411,,26.9421,,0.6241,85.5550,,7.534,,1.6006E+03,,1.0000E-12,,5.6715,5.6717,1.0274,,8.224,26.989,,,,,,,,,,,,
CalCOFI,2007SR,018,19,2007_018u,16-Jul-2020 17:47:16,16-Jul-2020 09:47:16,30.41752,-123.99732,090.0 120.0,090.0,120.0,478.000,481.852,,5.7129,,5.7130,,5.7130,34.1743,,34.1745,34.1758,,34.1774,34.1760,0.5777,,0.5859,0.6231,1.8872,,0.5641,0.6127,0.6179,25.122,25.7368,38.8373,82.073,,34.9953,36.9163,0.0322,,,,1.8044,,40.4277,39.268,26.9409,,26.9421,,0.6240,85.5560,,7.534,,1.5980E+03,,1.0000E-12,,5.6722,5.6723,1.0274,,8.260,26.986,,,,,,,,,,,,
CalCOFI,2007SR,018,19,2007_018u,16-Jul-2020 17:47:18,16-Jul-2020 09:47:18,30.41752,-123.99732,090.0 120.0,090.0,120.0,477.000,480.843,,5.7144,,5.7153,,5.7149,34.1740,,34.1742,34.1755,,34.1771,34.1757,0.5848,,0.5934,0.6306,1.8869,,0.5634,0.6119,0.6213,25.433,26.0614,39.1074,82.057,,34.9588,37.0331,0.0316,,,,1.8039,,40.4137,39.254,26.9405,,26.9415,,0.6242,85.5537,,7.534,,1.6018E+03,,1.0000E-12,,5.6737,5.6747,1.0274,,8.362,26.982,,,,,,,,,,,,
CalCOFI,2007SR,018,19,2007_018u,16-Jul-2020 17:47:19,16-Jul-2020 09:47:19,30.41752,-123.99732,090.0 120.0,090.0,120.0,476.000,479.834,,5.7216,,5.7275,,5.7246,34.1735,,34.1737,34.1742,,34.1758,34.1748,0.5926,,0.6015,0.6388,1.8860,,0.5612,0.6095,0.6242,25.772,26.4153,39.4018,82.021,,34.8766,37.1392,0.0314,,,,1.8041,,40.4193,39.260,26.9392,,26.9391,,0.6233,85.5722,,7.534,,1.6070E+03,,1.0000E-12,,5.6810,5.6869,1.0274,,8.475,26.977,,,,,,,,,,,,
CalCOFI,2007SR,018,19,2007_018u,16-Jul-2020 17:47:20,16-Jul-2020 09:47:20,30.41752,-123.99732,090.0 120.0,090.0,120.0,475.000,478.824,,5.7322,,5.7329,,5.7326,34.1714,,34.1716,34.1729,,34.1745,34.1731,0.5978,,0.6069,0.6442,1.8855,,0.5601,0.6081,0.6262,25.997,26.6502,39.5972,81.999,,34.8264,37.2118,0.0320,,,,1.8047,,40.4361,39.276,26.9362,,26.9374,,0.6232,85.5731,,7.534,,1.6090E+03,,1.0000E-12,,5.6917,5.6924,1.0274,,8.551,26.973,,,,,,,,,,,,
CalCOFI,2007SR,018,19,2007_018u,16-Jul-2020 17:47:21,16-Jul-2020 09:47:21,30.41752,-123.99732,090.0 120.0,090.0,120.0,474.000,477.815,,5.7326,,5.7329,,5.7328,34.1703,,34.1705,34.1716,,34.1732,34.1719,0.6032,,0.6126,0.6499,1.8853,,0.5596,0.6076,0.6288,26.233,26.8965,39.8021,81.989,,34.8036,37.3029,0.0329,,,,1.8050,,40.4445,39.285,26.9353,,26.9363,,0.6240,85.5563,,7.534,,1.6072E+03,,1.0000E-12,,5.6922,5.6925,1.0274,,8.629,26.970,,,,,,,,,,,,
CalCOFI,2007SR,018,19,2007_018u,16-Jul-2020 17:47:22,16-Jul-2020 09:47:22,30.41752,-123.99732,090.0 120.0,090.0,120.0,473.000,476.806,,5.7342,,5.7344,,5.7343,34.1699,,34.1701,34.1713,,34.1729,34.1715,0.6148,,0.6247,0.6620,1.8850,,0.5589,0.6068,0.6344,26.739,27.4247,40.2416,81.975,,34.7717,37.5067,0.0320,,,,1.8053,,40.4530,39.293,26.9348,,26.9359,,0.6234,85.5695,,7.535,,1.6061E+03,,1.0000E-12,,5.6938,5.6941,1.0274,,8.796,26.966,,,,,,,,,,,,
CalCOFI,2007SR,018,19,2007_018u,16-Jul-2020 17:47:23,16-Jul-2020 09:47:23,30.41752,-123.99732,090.0 120.0,090.0,120.0,472.000,475.797,,5.7384,,5.7386,,5.7385,34.1696,,34.1698,34.1710,,34.1726,34.1712,0.6314,,0.6420,0.6794,1.8845,,0.5577,0.6055,0.6425,27.459,28.1764,40.8668,81.956,,34.7283,37.7976,0.0318,,,,1.8052,,40.4502,39.290,26.9340,,26.9351,,0.6239,85.5594,,7.535,,1.6053E+03,,1.0000E-12,,5.6981,5.6984,1.0274,,9.033,26.962,,,,,,,,,,,,
CalCOFI,2007SR,018,19,2007_018u,16-Jul-2020 17:47:24,16-Jul-2020 09:47:24,30.41752,-123.99732,090.0 120.0,090.0,120.0,471.000,474.788,,5.7339,,5.7343,,5.7341,34.1635,,34.1637,34.1646,,34.1662,34.1650,0.6451,,0.6564,0.6938,1.8846,,0.5579,0.6057,0.6498,28.054,28.7975,41.3836,81.959,,34.7352,38.0594,0.0322,,,,1.8050,,40.4445,39.285,26.9297,,26.9306,,0.6232,85.5740,,7.535,,1.6058E+03,,1.0000E-12,,5.6937,5.6941,1.0274,,9.228,26.959,,,,,,,,,,,,
CalCOFI,2007SR,018,19,2007_018u,16-Jul-2020 17:47:25,16-Jul-2020 09:47:25,30.41752,-123.99732,090.0 120.0,090.0,120.0,470.000,473.778,,5.7299,,5.7300,,5.7300,34.1593,,34.1595,34.1605,,34.1621,34.1608,0.6572,,0.6690,0.7064,1.8846,,0.5579,0.6057,0.6561,28.580,29.3466,41.8404,81.960,,34.7374,38.2889,0.0316,,,,1.8050,,40.4445,39.285,26.9269,,26.9278,,0.6232,85.5741,,7.536,,1.6072E+03,,1.0000E-12,,5.6899,5.6899,1.0274,,9.400,26.956,,,,,,,,,,,,
CalCOFI,2007SR,018,19,2007_018u,16-Jul-2020 17:47:26,16-Jul-2020 09:47:26,30.41752,-123.99732,090.0 120.0,090.0,120.0,469.000,472.769,,5.7301,,5.7305,,5.7303,34.1559,,34.1561,34.1571,,34.1587,34.1574,0.6611,,0.6731,0.7105,1.8844,,0.5574,0.6052,0.6579,28.749,29.5230,41.9871,81.950,,34.7146,38.3509,0.0317,,,,1.8053,,40.4530,39.293,26.9241,,26.9251,,0.6241,85.5544,,7.537,,1.6089E+03,,1.0000E-12,,5.6901,5.6905,1.0274,,9.455,26.952,,,,,,,,,,,,
CalCOFI,2007SR,018,19,2007_018u,16-Jul-2020 17:47:27,16-Jul-2020 09:47:27,30.41752,-123.99732,090.0 120.0,090.0,120.0,468.000,471.760,,5.7356,,5.7361,,5.7359,34.1543,,34.1545,34.1556,,34.1572,34.1559,0.6663,,0.6785,0.7160,1.8864,,0.5622,0.6105,0.6633,28.979,29.7631,42.1869,82.036,,34.9109,38.5489,0.0313,,,,1.8055,,40.4586,39.299,26.9222,,26.9232,,0.6232,85.5744,,7.537,,1.6084E+03,,1.0000E-12,,5.6957,5.6962,1.0274,,9.532,26.984,,,,,,,,,,,,
CalCOFI,2007SR,018,19,2007_018u,16-Jul-2020 17:47:28,16-Jul-2020 09:47:28,30.41752,-123.99732,090.0 120.0,090.0,120.0,467.000,470.751,,5.7377,,5.7378,,5.7378,34.1540,,34.1542,34.1554,,34.1570,34.1556,0.6706,,0.6830,0.7205,1.8927,,0.5772,0.6273,0.6739,29.165,29.9572,42.3484,82.311,,35.5385,38.9435,0.0310,,,,1.8059,,40.4698,39.310,26.9217,,26.9228,,0.6232,85.5741,,7.538,,1.6072E+03,,1.0000E-12,,5.6979,5.6980,1.0274,,9.593,27.076,,,,,,,,,,,,
CalCOFI,2007SR,018,19,2007_018u,16-Jul-2020 17:47:29,16-Jul-2020 09:47:29,30.41752,-123.99732,090.0 120.0,090.0,120.0,466.000,469.742,,5.7414,,5.7416,,5.7415,34.1526,,34.1528,34.1539,,34.1555,34.1542,0.6767,,0.6894,0.7269,1.8919,,0.5753,0.6252,0.6761,29.430,30.2339,42.5785,82.278,,35.4632,39.0209,0.0316,,,,1.8066,,40.4895,39.329,26.9201,,26.9212,,0.6232,85.5741,,7.538,,1.6077E+03,,1.0000E-12,,5.7016,5.7018,1.0274,,9.681,27.067,,,,,,,,,,,,
CalCOFI,2007SR,018,19,2007_018u,16-Jul-2020 17:47:30,16-Jul-2020 09:47:30,30.41752,-123.99732,090.0 120.0,090.0,120.0,465.000,468.733,,5.7423,,5.7424,,5.7424,34.1508,,34.1510,34.1522,,34.1538,34.1524,0.6811,,0.6940,0.7315,1.8885,,0.5672,0.6161,0.6738,29.621,30.4333,42.7444,82.130,,35.1254,38.9349,0.0319,,,,1.8075,,40.5147,39.354,26.9186,,26.9197,,0.6232,85.5741,,7.538,,1.6079E+03,,1.0000E-12,,5.7026,5.7028,1.0274,,9.744,27.018,,,,,,,,,,,,